Cedar Falls, IA

3:49 AM CDT on September 28, 2016 (GMT -0500)
Waterloo Municipal

Weather History for KALO - January, 2013

Change the Weather History Date:

Wednesday, January 2, 2013

  Actual Average Record
Temperature  
Mean Temperature 15 °F 19 °F  
Max Temperature 28 °F 27 °F 50 °F (1998)
Min Temperature 1 °F 10 °F -20 °F (2010)
Degree Days  
Heating Degree Days 50 46  
Month to date heating degree days 112 92  
Since 1 July heating degree days 2788 2903  
Cooling Degree Days 0 0  
Month to date cooling degree days 0 0  
Year to date cooling degree days 0 0  
Moisture  
Dew Point 12 °F    
Average Humidity 83    
Maximum Humidity 92    
Minimum Humidity 73    
Precipitation  
Precipitation T in 0.03 in 0.99 in (1966)
Month to date precipitation T 0.06  
Year to date precipitation T 0.06  
Snow  
Snow T in 0.20 in 9.20 in (1999)
Month to date snowfall T 0.5  
Since 1 July snowfall 11.3 13.8  
Snow Depth 6.00 in    
Sea Level Pressure  
Sea Level Pressure 30.10 in    
Wind  
Wind Speed 7 mph (SW)    
Max Wind Speed 15 mph    
Max Gust Speed 17 mph    
Visibility 8 miles    
Events      
T = Trace of Precipitation, MM = Missing Value Source: NWS Daily Summary

Daily Weather History Graph

Daily Weather History Graph

Search for Another Location

Airport or City:

Trip Planner

Search our weather history database for the weather conditions in past years. The results will help you decide how hot, cold, wet, or windy it might be!

Date:

Astronomy

Jan. 02, 2013 Rise Set
Actual Time 7:39 AM CST 4:48 PM CST
Civil Twilight 7:07 AM CST 5:20 PM CST
Nautical Twilight 6:32 AM CST 5:55 PM CST
Astronomical Twilight 5:58 AM CST 6:29 PM CST
Moon 10:29 PM CST (1/2) 10:14 AM CST (1/2)
Length of Visible Light 10h 12m
Length of Day
9h 08m
Waning Gibbous, 75% of the Moon is Illuminated
Jan 2
Waning Gibbous
Jan 4
Last Quarter
Jan 11
New
Jan 18
First Quarter
Jan 26
Full

Hourly Weather History & Observations

Time (CST) Temp. Windchill Dew Point Humidity Pressure Visibility Wind Dir Wind Speed Gust Speed Precip Events Conditions
12:54 AM 5.0 °F -4.1 °F -2.0 °F 73% 30.18 in 10.0 mi South 4.6 mph - N/A   Clear
1:54 AM 5.0 °F -6.9 °F -2.0 °F 73% 30.17 in 10.0 mi South 6.9 mph - N/A   Clear
2:54 AM 3.9 °F -6.9 °F -2.9 °F 73% 30.16 in 10.0 mi South 5.8 mph - N/A   Clear
3:54 AM 3.9 °F -5.3 °F -2.9 °F 73% 30.15 in 10.0 mi South 4.6 mph - N/A   Clear
4:54 AM 3.9 °F -5.3 °F -2.0 °F 76% 30.12 in 10.0 mi South 4.6 mph - N/A   Clear
5:54 AM 3.2 °F -6.2 °F -0.4 °F 85% 30.06 in 10.0 mi SSE 4.6 mph - N/A   Clear
6:54 AM 3.0 °F -6.4 °F -0.9 °F 84% 30.12 in 10.0 mi SSE 4.6 mph - N/A   Clear
7:54 AM 5.0 °F -5.6 °F -0.0 °F 80% 30.12 in 10.0 mi South 5.8 mph - N/A   Clear
8:54 AM 6.1 °F -2.8 °F 1.0 °F 80% 30.12 in 10.0 mi South 4.6 mph - N/A   Clear
9:54 AM 10.0 °F -0.9 °F 3.9 °F 76% 30.10 in 10.0 mi South 6.9 mph - N/A   Clear
10:54 AM 12.9 °F 0.7 °F 7.0 °F 77% 30.10 in 10.0 mi SW 9.2 mph - N/A   Clear
11:54 AM 16.0 °F 2.9 °F 10.0 °F 77% 30.08 in 9.0 mi SW 11.5 mph - N/A   Clear
12:54 PM 17.1 °F 5.8 °F 10.9 °F 77% 30.06 in 7.0 mi SW 9.2 mph - N/A   Partly Cloudy
1:54 PM 19.0 °F 6.8 °F 12.9 °F 77% 30.04 in 7.0 mi South 11.5 mph - N/A   Overcast
2:54 PM 19.9 °F 7.3 °F 14.0 °F 78% 30.06 in 7.0 mi SSW 12.7 mph - N/A   Overcast
3:54 PM 19.9 °F 9.3 °F 15.1 °F 81% 30.07 in 5.0 mi WSW 9.2 mph - N/A   Haze
4:54 PM 21.0 °F 12.4 °F 16.0 °F 81% 30.09 in 6.0 mi WSW 6.9 mph - N/A   Haze
5:38 PM 21.2 °F 13.6 °F 17.6 °F 86% 30.04 in 6.0 mi WSW 5.8 mph - N/A   Overcast
5:54 PM 21.9 °F 14.5 °F 17.1 °F 82% 30.10 in 7.0 mi WSW 5.8 mph - N/A   Overcast
6:54 PM 21.9 °F 13.4 °F 18.0 °F 85% 30.11 in 7.0 mi WSW 6.9 mph - N/A   Overcast
7:54 PM 23.0 °F 14.7 °F 19.0 °F 85% 30.11 in 5.0 mi WSW 6.9 mph - 0.00 in   Overcast
8:15 PM 23.0 °F 14.7 °F 19.4 °F 86% 30.05 in 6.0 mi WSW 6.9 mph - N/A   Overcast
8:54 PM 25.0 °F 17.1 °F 21.9 °F 88% 30.10 in 6.0 mi WSW 6.9 mph - N/A   Overcast
9:45 PM 26.6 °F 19.1 °F 23.0 °F 86% 30.06 in 7.0 mi West 6.9 mph - N/A   Overcast
9:54 PM 26.1 °F 17.6 °F 23.0 °F 88% 30.11 in 7.0 mi WSW 8.1 mph - N/A   Overcast
10:49 PM 26.6 °F 19.1 °F 24.8 °F 93% 30.08 in 5.0 mi West 6.9 mph - N/A   Overcast
10:54 PM 27.0 °F 18.7 °F 25.0 °F 92% 30.12 in 5.0 mi West 8.1 mph - N/A   Overcast
11:26 PM 28.4 °F 22.2 °F 26.6 °F 93% 30.08 in 7.0 mi West 5.8 mph - N/A   Overcast
11:54 PM 28.0 °F 21.7 °F 25.0 °F 88% 30.14 in 8.0 mi WNW 5.8 mph - N/A   Overcast